Location: Hope
(40.9110°N, 74.9680°W)
Time: 02:54:38
(UTC-04:00)

VELOX 1 - Pass Details

Date: 31 July 2021
Orbit: 626 x 643 km, 98.3° (Epoch: 26 September)

Event Time Altitude Azimuth Distance (km) Brightness Sun altitude
Exits shadow 03:59:46 - 153° (SSE) 2,697 ? -18.5°
Reaches altitude 10° 04:01:26 10° 149° (SSE) 2,020 ? -18.3°
Maximum altitude 04:05:44 54° 73° (ENE) 779 ? -17.7°
Drops below altitude 10° 04:10:04 10° 356° (N) 2,044 ? -17.2°
Sets 04:12:19 0° 352° (N) 2,959 ? -16.9°
